Location: B?dimalle
(17.1788°N, 80.5377°E)
Time: 10:56:20
(UTC+00:00)

Tiros 1 despin weight - Pass Details

Date: 16 February 2026
Orbit: 556 x 593 km, 48.2° (Epoch: 10 March)

Event Time Altitude Azimuth Distance (km) Brightness Sun altitude
Rises 19:01:41 0° 292° (WNW) 2,752 - -84.4°
Reaches altitude 10° 19:04:40 10° 270° (W) 1,863 - -84.1°
Maximum altitude 19:07:16 16° 232° (SW) 1,531 - -83.7°
Drops below altitude 10° 19:09:53 10° 195° (SSW) 1,876 - -83.3°
Sets 19:12:55 0° 173° (S) 2,782 - -82.8°
